Wind_Speed
17 18 18 18 18 19 20 21 23 23 24 24 24 25 25 27 28 30 31 32 34 36 37 38 38 39 40 40 41 42 43 43 44 44 44 45 45 46 47 48 48 48 48 48
19 19 20 20 19 19 20 21 22 23 23 23 24 26 27 27 28 29 30 31 33 34 35 36 37 38 38 39 40 41 42 43 43 43 43 43 44 45 45 45 46 47 47 46
20 21 21 22 20 20 21 22 23 24 23 24 26 27 28 29 29 29 30 30 31 32 33 35 36 37 38 39 40 40 41 42 43 43 44 44 43 43 44 44 45 45 45 45
20 22 23 21 21 22 22 23 24 25 25 26 27 28 29 29 30 30 30 30 31 32 33 34 35 36 37 38 39 40 41 42 41 42 43 44 43 43 44 43 42 43 43 44
22 24 24 22 21 22 23 24 24 24 25 26 27 28 28 29 30 31 31 32 33 33 33 34 34 35 36 37 37 38 40 41 41 41 42 42 41 41 41 41 42 42 43 44
24 25 25 24 24 24 25 25 24 24 25 27 27 28 28 29 30 31 31 31 33 34 34 34 35 35 36 37 37 38 39 39 39 39 39 39 39 39 40 41 41 41 42 43
26 26 26 26 26 26 27 26 25 25 26 27 28 28 29 29 30 31 31 31 32 32 33 34 35 35 36 37 37 38 37 37 37 37 37 37 38 39 39 41 41 41 42 41
26 27 26 26 26 27 27 27 27 26 26 27 28 28 28 29 29 30 31 30 30 31 32 33 34 34 35 35 35 35 35 35 36 36 37 37 38 39 39 40 40 40 40 40
26 26 26 26 27 27 28 28 27 27 26 27 28 28 28 28 28 29 30 30 30 30 30 31 32 32 32 32 33 33 34 34 35 35 36 37 37 37 37 38 38 38 39 39
27 26 26 26 27 28 28 28 28 28 28 28 29 29 29 29 29 29 29 29 30 31 31 30 31 31 31 31 32 32 32 33 34 35 36 37 37 37 38 38 39 40 39 39
28 27 27 27 27 28 28 29 30 30 30 29 29 29 30 30 30 30 29 29 30 30 31 30 30 30 31 31 31 31 31 32 33 34 35 36 37 38 38 38 38 39 39 39
29 28 29 28 27 27 28 28 29 30 30 30 29 29 30 30 30 30 30 30 30 30 31 31 30 30 30 30 31 32 32 33 33 34 34 35 35 35 36 36 37 38 38 38
29 30 30 29 28 28 28 29 29 29 29 29 29 29 29 29 29 30 30 31 31 30 30 31 31 30 30 30 31 31 32 32 33 34 34 34 34 34 34 34 35 35 36 37
29 30 30 29 29 29 29 29 29 28 28 28 29 29 29 29 30 31 31 31 31 31 31 31 31 31 31 31 31 32 32 33 33 33 34 34 34 34 34 34 34 34 35 36
31 31 31 30 30 31 30 30 29 28 28 29 29 29 29 29 30 31 32 32 32 32 32 32 32 32 32 32 32 32 33 34 34 34 33 33 33 33 34 34 34 34 34 34
31 32 32 32 32 32 32 31 30 30 30 29 30 30 30 30 30 30 31 31 31 31 32 32 32 32 33 33 33 33 33 33 33 33 33 33 33 33 33 34 34 34 34 35
32 32 32 32 32 32 32 33 32 32 31 30 30 30 30 30 30 30 31 31 31 32 32 32 32 33 33 33 33 33 33 33 33 33 33 33 33 33 33 34 34 34 34 34
33 33 33 33 32 32 32 33 33 32 32 31 30 30 31 31 31 31 32 32 32 32 32 32 32 33 33 33 33 33 33 33 33 33 33 33 33 33 34 34 34 34 33 33
34 33 33 32 33 33 32 32 32 32 32 32 32 32 32 32 32 32 32 32 32 32 32 32 32 32 33 33 33 33 33 34 34 33 33 33 34 34 34 34 34 33 33 33
34 34 33 33 33 33 33 33 33 33 32 32 32 32 32 32 33 33 33 32 33 33 32 32 32 32 32 32 32 33 33 34 34 34 33 33 33 33 33 32 32 32 32 32
35 35 35 35 34 34 34 34 33 33 33 32 32 32 33 33 33 33 33 33 33 33 33 32 32 32 32 33 33 33 33 33 33 33 32 32 32 32 32 31 31 31 31 31
36 36 36 36 35 35 34 34 33 33 33 33 33 33 33 33 33 33 33 33 33 33 33 33 33 33 33 33 33 33 32 32 32 31 31 31 31 31 31 31 31 31 31 31
36 36 35 35 35 35 34 34 34 34 34 33 33 33 32 32 32 32 32 32 32 32 33 33 33 33 32 32 32 32 31 31 31 30 30 30 30 30 30 30 30 30 30 30
35 35 35 34 34 33 33 33 33 32 32 32 32 32 32 32 32 32 32 32 32 32 32 32 32 32 32 31 31 31 31 30 30 30 30 29 29 29 29 29 29 29 28 28
34 34 33 32 32 31 31 31 31 31 31 31 32 32 33 33 33 33 33 33 33 32 32 32 32 31 31 30 30 30 30 29 28 28 27 27 27 27 26 26 26 26 26 26
33 32 31 31 30 30 30 31 31 31 32 32 32 32 33 33 34 34 34 33 32 31 31 30 29 28 28 28 27 27 26 26 25 25 26 26 25 25 24 24 24 24 24 24
32 32 31 31 31 31 31 31 32 32 32 32 32 32 32 33 33 33 33 32 31 30 28 27 26 25 25 25 24 24 24 24 24 24 25 25 24 23 23 22 22 22 22 22
Wind_Direction
278 275 272 269 268 265 264 264 262 262 263 266 266 268 268 266 263 262 260 258 256 255 254 255 257 259 259 260 262 263 263 264 265 265 266 267 267 268 269 269 269 269 269 270
274 273 271 271 270 270 269 269 268 266 266 267 266 266 268 268 265 264 262 260 258 257 257 257 258 260 260 260 262 264 265 266 267 268 269 269 269 269 270 270 270 269 270 270
274 271 270 270 270 273 273 271 271 270 271 270 268 266 267 267 266 265 263 261 260 259 259 260 260 260 261 261 262 264 266 267 269 270 270 271 272 271 272 271 270 270 271 271
277 274 273 276 272 273 273 271 271 272 272 270 268 268 268 268 267 265 263 261 260 259 260 262 263 264 264 264 264 265 266 267 269 270 271 273 273 273 272 271 271 271 273 274
279 276 275 275 275 275 274 273 274 274 271 270 270 270 268 268 267 267 264 263 262 262 263 264 265 265 266 266 267 268 268 269 270 271 273 274 273 273 272 272 273 274 276 276
279 278 277 278 276 275 275 274 275 273 272 272 272 271 270 269 269 269 267 265 265 264 265 266 267 267 267 268 268 269 270 270 271 272 273 274 274 273 273 273 275 276 278 278
279 279 279 281 279 277 276 277 277 276 274 273 273 273 273 271 270 270 269 267 266 265 265 267 267 268 269 269 270 271 271 271 271 271 272 273 274 274 274 274 274 276 277 277
281 281 282 282 280 278 277 276 277 275 272 271 272 273 274 273 271 269 268 268 267 265 265 267 268 269 270 270 270 270 270 270 271 272 273 274 274 273 273 273 274 276 276 277
285 286 285 281 279 278 276 275 276 276 276 274 272 273 275 274 272 270 268 268 268 268 268 268 269 270 270 270 269 269 269 271 271 272 273 273 274 274 273 273 274 275 276 277
286 288 287 284 280 278 277 276 275 276 276 276 274 274 274 273 272 271 270 269 269 270 271 272 272 271 270 270 270 270 270 270 271 272 273 273 274 274 275 275 276 276 277 277
285 286 285 284 282 279 276 276 275 275 275 276 275 274 273 272 270 269 269 270 271 272 272 272 272 271 270 270 270 270 270 270 272 273 274 275 275 276 276 276 277 277 277 277
283 284 284 284 282 280 278 278 278 276 275 275 275 274 272 271 269 268 269 270 271 272 273 272 272 271 271 271 271 272 272 273 274 275 276 277 277 277 278 279 279 279 278 278
282 281 281 281 280 280 280 280 280 279 278 276 276 275 273 270 269 268 269 270 271 272 273 273 273 272 272 273 273 273 273 275 275 277 277 278 277 277 278 280 280 280 280 279
282 280 279 279 279 280 281 281 281 280 279 277 276 275 274 271 269 269 270 270 270 271 272 272 273 273 274 275 275 276 275 275 277 278 278 278 278 278 278 280 281 281 280 280
282 281 280 280 280 280 280 280 279 278 278 278 277 277 275 273 272 272 271 271 271 271 271 272 272 273 275 276 277 277 277 278 279 279 279 279 279 279 279 280 280 280 281 281
282 281 281 280 280 280 279 278 278 278 278 278 279 279 278 276 275 274 274 273 273 273 272 272 272 272 274 275 276 276 277 278 279 277 277 279 280 280 280 281 281 281 281 281
283 282 281 280 279 279 278 277 277 277 278 277 277 278 278 278 276 275 275 275 275 275 275 274 272 272 272 273 274 275 276 276 277 277 277 278 279 279 280 280 281 281 282 282
284 283 281 279 278 278 278 277 276 275 276 276 276 277 278 278 276 275 275 276 276 276 275 274 274 274 274 274 275 275 276 277 277 277 278 277 278 279 279 280 280 281 282 281
283 282 282 280 278 277 277 277 277 277 276 277 277 277 278 277 276 276 276 276 276 275 275 276 276 276 275 275 276 276 277 277 277 278 278 278 278 278 279 280 279 279 281 281
281 281 281 281 280 278 277 276 276 276 277 277 277 278 277 277 276 276 276 276 276 276 276 276 276 276 277 277 277 278 279 279 279 278 278 279 279 279 279 279 279 279 280 280
280 280 280 280 280 279 278 277 276 275 275 276 277 278 278 277 277 277 277 276 275 275 275 276 276 276 277 277 277 278 279 280 280 280 279 279 279 279 278 278 278 279 280 280
279 280 280 280 280 279 278 277 276 275 275 275 275 276 277 277 277 277 277 277 276 276 275 276 276 276 277 277 277 277 278 279 280 281 280 280 279 279 278 278 278 279 280 280
279 280 280 280 280 278 277 276 276 276 275 274 275 276 277 277 277 278 278 278 277 276 276 276 275 276 276 276 276 276 277 279 280 281 281 281 282 281 279 279 279 280 281 282
279 279 280 280 280 279 278 276 275 275 275 275 275 275 276 277 278 279 279 278 277 277 276 276 275 275 276 276 276 276 276 278 280 281 282 283 283 282 280 280 280 281 280 280
278 279 279 279 278 278 277 275 274 274 275 275 275 276 277 277 278 279 279 279 279 279 277 276 275 274 274 275 275 275 276 278 280 281 282 283 283 283 282 281 281 281 280 279
278 278 278 278 278 278 277 276 275 275 276 276 277 278 278 278 278 278 278 278 278 278 277 275 273 272 273 274 274 275 275 277 279 281 283 284 284 283 283 283 283 282 281 280
277 277 278 278 278 278 279 279 278 278 278 278 279 279 279 279 279 278 277 276 276 275 273 271 270 270 271 271 272 273 275 278 280 282 284 285 283 282 282 283 283 282 281 281
Height
5617 5616 5616 5617 5618 5617 5617 5618 5619 5621 5622 5624 5624 5625 5626 5626 5627 5628 5629 5630 5632 5633 5635 5636 5638 5639 5640 5641 5642 5642 5643 5644 5644 5645 5645 5645 5645 5646 5646 5647 5648 5648 5650 5651
5614 5613 5612 5613 5614 5613 5613 5613 5614 5614 5616 5618 5618 5618 5619 5619 5620 5621 5622 5623 5624 5625 5627 5628 5629 5630 5630 5631 5632 5633 5633 5634 5634 5634 5634 5634 5634 5635 5635 5635 5636 5637 5637 5638
5609 5609 5607 5608 5610 5609 5609 5609 5609 5609 5612 5611 5611 5611 5612 5612 5613 5614 5615 5615 5616 5617 5618 5619 5620 5620 5621 5622 5622 5623 5623 5624 5624 5623 5624 5624 5624 5624 5624 5624 5624 5625 5626 5626
5603 5604 5602 5607 5605 5604 5603 5603 5603 5603 5604 5603 5604 5604 5605 5605 5605 5606 5607 5607 5608 5608 5609 5610 5611 5611 5612 5612 5612 5613 5613 5613 5613 5613 5613 5613 5613 5613 5613 5613 5614 5614 5614 5614
5597 5596 5596 5599 5599 5598 5597 5597 5597 5596 5596 5596 5596 5596 5597 5597 5597 5597 5598 5598 5599 5600 5600 5601 5601 5602 5602 5602 5602 5602 5603 5603 5603 5603 5603 5602 5602 5602 5602 5603 5603 5603 5603 5602
5592 5590 5591 5594 5593 5591 5591 5590 5591 5589 5589 5589 5589 5589 5591 5590 5589 5589 5590 5590 5590 5591 5591 5592 5592 5592 5592 5592 5592 5592 5592 5592 5592 5592 5592 5592 5591 5592 5592 5592 5592 5592 5592 5591
5586 5584 5584 5586 5585 5584 5584 5585 5583 5582 5582 5581 5581 5582 5582 5581 5581 5581 5581 5581 5582 5582 5583 5582 5582 5582 5582 5582 5582 5581 5581 5582 5582 5582 5582 5581 5581 5581 5581 5581 5581 5581 5581 5580
5579 5578 5581 5579 5577 5577 5576 5576 5575 5574 5574 5574 5573 5573 5573 5572 5572 5572 5573 5573 5573 5573 5574 5573 5573 5573 5572 5572 5572 5572 5572 5572 5571 5571 5571 5571 5571 5571 5570 5570 5570 5569 5569 5568
5574 5574 5573 5571 5570 5569 5568 5568 5567 5567 5566 5566 5566 5565 5565 5564 5564 5564 5564 5564 5564 5564 5565 5564 5564 5563 5563 5562 5562 5562 5562 5562 5562 5562 5561 5561 5561 5560 5559 5559 5559 5558 5558 5557
5566 5566 5565 5563 5562 5562 5561 5560 5559 5559 5559 5558 5557 5557 5557 5556 5556 5555 5555 5555 5555 5555 5556 5555 5554 5554 5553 5553 5553 5553 5553 5552 5552 5552 5552 5551 5550 5550 5549 5548 5548 5547 5546 5545
5559 5559 5557 5556 5555 5554 5553 5552 5551 5550 5550 5549 5549 5548 5548 5547 5547 5547 5546 5546 5546 5546 5546 5546 5545 5545 5544 5544 5544 5544 5544 5543 5543 5542 5541 5541 5540 5539 5538 5538 5537 5536 5535 5534
5551 5551 5549 5548 5547 5546 5545 5544 5543 5542 5541 5541 5540 5539 5539 5538 5538 5538 5538 5538 5537 5537 5537 5536 5536 5536 5535 5535 5535 5534 5534 5534 5533 5532 5531 5531 5530 5529 5527 5527 5526 5525 5523 5522
5542 5541 5540 5540 5539 5537 5536 5535 5534 5533 5533 5532 5531 5531 5530 5530 5529 5529 5529 5528 5528 5528 5527 5527 5526 5526 5526 5525 5525 5525 5524 5524 5523 5522 5521 5520 5519 5518 5518 5516 5515 5513 5512 5511
5533 5532 5531 5531 5530 5529 5527 5526 5525 5525 5524 5523 5523 5522 5521 5521 5520 5520 5519 5519 5519 5518 5518 5517 5517 5517 5516 5516 5515 5515 5514 5514 5513 5512 5511 5510 5509 5508 5507 5506 5505 5503 5502 5500
5524 5522 5522 5521 5520 5519 5518 5517 5517 5516 5515 5515 5514 5513 5512 5512 5511 5511 5510 5509 5509 5509 5508 5508 5507 5507 5506 5506 5505 5505 5504 5504 5503 5502 5501 5500 5499 5498 5497 5496 5495 5493 5492 5490
5515 5514 5513 5512 5511 5510 5509 5508 5507 5507 5506 5505 5504 5504 5503 5503 5502 5501 5500 5499 5499 5499 5498 5498 5497 5497 5496 5496 5495 5495 5494 5494 5493 5492 5491 5490 5489 5488 5487 5485 5484 5483 5482 5480
5505 5504 5503 5502 5501 5501 5500 5499 5498 5497 5496 5496 5495 5494 5494 5493 5492 5492 5491 5490 5489 5489 5488 5488 5487 5487 5486 5486 5485 5485 5484 5483 5483 5482 5481 5480 5479 5478 5477 5475 5474 5472 5471 5470
5495 5494 5493 5492 5492 5491 5490 5489 5488 5487 5487 5486 5485 5484 5484 5483 5482 5482 5481 5480 5479 5479 5478 5477 5477 5476 5476 5475 5475 5474 5474 5473 5472 5471 5470 5469 5468 5467 5466 5465 5463 5462 5460 5459
5485 5484 5483 5482 5481 5481 5480 5479 5478 5477 5476 5476 5475 5474 5473 5473 5472 5471 5471 5470 5469 5469 5468 5467 5467 5466 5466 5465 5464 5464 5463 5462 5462 5461 5460 5459 5458 5457 5455 5454 5453 5451 5450 5449
5475 5474 5473 5472 5471 5470 5469 5469 5468 5467 5466 5465 5464 5464 5463 5462 5461 5461 5460 5460 5459 5458 5458 5457 5457 5456 5456 5455 5454 5453 5453 5452 5451 5450 5449 5448 5447 5446 5444 5443 5442 5441 5440 5439
5464 5463 5462 5461 5460 5459 5458 5458 5457 5456 5456 5455 5454 5454 5453 5452 5451 5450 5450 5450 5449 5448 5447 5447 5446 5446 5445 5445 5444 5443 5442 5441 5440 5439 5438 5437 5436 5435 5434 5433 5432 5431 5430 5429
5453 5452 5451 5450 5449 5448 5447 5446 5446 5445 5445 5445 5444 5443 5442 5442 5441 5440 5440 5439 5438 5437 5437 5436 5436 5435 5435 5434 5433 5433 5432 5431 5430 5429 5428 5427 5426 5425 5424 5423 5422 5421 5420 5419
5442 5441 5440 5439 5438 5437 5436 5436 5435 5434 5434 5434 5433 5433 5432 5431 5431 5430 5430 5429 5428 5427 5426 5426 5425 5425 5424 5424 5423 5422 5422 5421 5420 5419 5418 5417 5416 5415 5414 5413 5412 5411 5410 5409
5430 5429 5428 5427 5426 5426 5425 5425 5424 5424 5423 5423 5423 5422 5422 5421 5420 5420 5419 5418 5417 5416 5416 5415 5415 5414 5414 5413 5413 5412 5412 5411 5410 5410 5409 5407 5406 5405 5404 5403 5402 5401 5400 5399
5419 5418 5417 5417 5416 5415 5414 5414 5414 5413 5413 5412 5412 5412 5411 5410 5410 5409 5408 5408 5407 5406 5405 5405 5405 5404 5404 5404 5403 5403 5402 5402 5401 5400 5399 5398 5397 5396 5395 5394 5393 5393 5392 5391
5408 5407 5407 5406 5405 5405 5404 5404 5403 5403 5403 5402 5402 5401 5400 5400 5399 5398 5397 5397 5396 5395 5395 5395 5395 5395 5395 5394 5394 5394 5393 5393 5392 5392 5391 5390 5389 5388 5387 5386 5385 5384 5384 5383
5397 5397 5396 5396 5395 5395 5394 5393 5393 5393 5392 5392 5391 5390 5389 5389 5388 5387 5387 5386 5386 5385 5385 5385 5386 5386 5386 5386 5386 5385 5385 5385 5384 5384 5383 5382 5381 5380 5379 5379 5378 5377 5376 5375